This demonstration page uses our WeatherBlox Daily Observations layout. Learn more.

Left ArrowRight Arrow

39.01783, -85.05884

Hourly Observations for August 15, 2021

Temp ( °F °C ) Dew Point ( °F °C ) Humidity (%) Winds ( mph kmh ) Pressure ( in mb ) Visibility ( mi km ) Precip ( " mm )
12:52 am 00:52 Cloudy 73 22.8 58 14.4 59 59 NE 17 28 30.17 1022 10 16 0.00 0.00
1:52 am 01:52 Cloudy 72 22.2 58 14.4 61 61 NE 13 20 30.17 1022 10 16 0.00 0.00
2:52 am 02:52 Cloudy 72 22.2 55 12.8 55 55 ENE 14 22 30.14 1021 10 16 0.00 0.00
3:52 am 03:52 Cloudy 71 21.7 55 12.8 57 57 ENE 14 22 30.13 1020 10 16 0.00 0.00
4:52 am 04:52 Cloudy 70 21.1 57 13.9 64 64 NE 13 20 30.12 1020 10 16 0.00 0.00
5:52 am 05:52 Cloudy with Light Rain 68 20 57 13.9 68 68 ENE 14 22 30.13 1020 10 16 0.00 0.00
6:52 am 06:52 Cloudy with Heavy Rain 64 17.8 59 15 84 84 ENE 13 20 30.15 1021 2 3 0.16 4.06
7:09 am 07:09 Cloudy with Heavy Rain 63 17.2 59 15 87 87 ENE 14 22 30.18 1022 3 4 0.25 6.35
7:52 am 07:52 Cloudy with Heavy Rain 63 17.2 59 15 87 87 ENE 12 19 30.16 1022 2 3 0.37 9.40
8:46 am 08:46 Cloudy with Light Rain 63 17 59 15 88 88 NE 12 19 30.18 1022 5 8 0.17 4.32
8:52 am 08:52 Cloudy with Mist and Fog 63 17.2 59 15 87 87 ENE 12 19 30.17 1022 5 8 0.17 4.32
9:52 am 09:52 Cloudy 65 18.3 60 15.6 84 84 NE 12 19 30.17 1022 10 16 0.00 0.00
10:52 am 10:52 Cloudy 65 18.3 60 15.6 84 84 ENE 8 13 30.17 1022 10 16 0.00 0.00
11:52 am 11:52 Cloudy 67 19.4 59 15 76 76 NE 12 19 30.17 1022 10 16 0.00 0.00
12:52 pm 12:52 Mostly Cloudy 70 21.1 60 15.6 71 71 NE 9 15 30.15 1021 10 16 0.00 0.00
1:52 pm 13:52 Cloudy 74 23.3 61 16.1 64 64 ENE 12 19 30.14 1021 10 16 0.00 0.00
2:52 pm 14:52 Cloudy 77 25 62 16.7 60 60 ENE 12 19 30.11 1020 10 16 0.00 0.00
3:52 pm 15:52 Cloudy 76 24.4 62 16.7 62 62 ENE 12 19 30.09 1019 10 16 0.00 0.00
4:52 pm 16:52 Cloudy 75 23.9 62 16.7 64 64 ENE 12 19 30.09 1019 10 16 0.00 0.00
5:52 pm 17:52 Cloudy 75 23.9 62 16.7 64 64 ENE 13 20 30.08 1019 10 16 0.00 0.00
6:52 pm 18:52 Cloudy 74 23.3 61 16.1 64 64 NE 9 15 30.08 1019 10 16 0.00 0.00
7:52 pm 19:52 Cloudy 73 22.8 61 16.1 66 66 ENE 10 17 30.07 1018 10 16 0.00 0.00
8:52 pm 20:52 Cloudy 73 22.8 60 15.6 64 64 ENE 8 13 30.06 1018 10 16 0.00 0.00
9:27 pm 21:27 Cloudy 72 22.2 61 16.1 68 68 NE 8 13 30.07 1018 10 16 0.00 0.00
9:52 pm 21:52 Cloudy 73 22.8 61 16.1 66 66 E 7 11 30.09 1019 10 16 0.00 0.00
10:52 pm 22:52 Cloudy 73 22.8 61 16.1 66 66 ENE 9 15 30.09 1019 10 16 0.00 0.00
11:52 pm 23:52 Cloudy 72 22.2 61 16.1 68 68 ENE 9 15 30.07 1018 10 16 0.00 0.00

Powered by AerisWeather